| time (UTC) | temp C | wind direction | speed KPH | gust KPH | rain 1hr cm | rain 24hr cm | rain mn cm | humidity % | barometer mb |
| 20260905080151 | 17 | 311 | 1.6 | 6.4 | 0.00 | 0.30 | 0.00 | 88 | 1009.5 |
| 20260905070158 | 17 | 321 | 0.0 | 1.6 | 0.00 | 0.30 | 0.00 | 85 | 1009.7 |
| 20260905070151 | 17 | 321 | 0.0 | 1.6 | 0.00 | 0.30 | 0.00 | 85 | 1009.7 |
| 20260905060151 | 18 | 0 | 0.0 | 0.0 | 0.00 | 0.30 | 0.00 | 86 | 1010.2 |
| 20260905050151 | 18 | 93 | 1.6 | 3.2 | 0.00 | 0.30 | 0.00 | 82 | 1010.5 |
| 20260905040151 | 18 | 0 | 0.0 | 0.0 | 0.00 | 0.30 | 0.00 | 86 | 1010.6 |
| 20260905030152 | 19 | 0 | 0.0 | 0.0 | 0.00 | 0.30 | 0.30 | 84 | 1010.4 |
| 20260905020151 | 20 | 0 | 0.0 | 0.0 | 0.00 | 0.30 | 0.30 | 84 | 1010.4 |
| 20260905010153 | 20 | 0 | 0.0 | 0.0 | 0.00 | 0.30 | 0.30 | 81 | 1010.7 |
| 20260905000151 | 22 | 0 | 0.0 | 0.0 | 0.00 | 0.30 | 0.30 | 74 | 1010.4 |
| 20260904230151 | 26 | 0 | 0.0 | 0.0 | 0.00 | 0.30 | 0.30 | 59 | 1010.1 |
| 20260904220153 | 28 | 285 | 1.6 | 9.7 | 0.00 | 0.30 | 0.30 | 47 | 1009.9 |
| 20260904210151 | 28 | 4 | 1.6 | 6.4 | 0.00 | 0.30 | 0.30 | 46 | 1010.1 |
| 20260904200151 | 28 | 304 | 4.8 | 16.1 | 0.00 | 0.30 | 0.30 | 45 | 1010.2 |
| 20260904190151 | 27 | 289 | 8.0 | 24.1 | 0.00 | 0.30 | 0.30 | 48 | 1010.4 |
| 20260904180152 | 27 | 15 | 4.8 | 11.3 | 0.00 | 0.30 | 0.30 | 48 | 1010.6 |
| 20260904170156 | 27 | 19 | 3.2 | 9.7 | 0.00 | 0.30 | 0.30 | 53 | 1010.6 |
| 20260904140152 | 25 | 5 | 4.8 | 14.5 | 0.00 | 0.30 | 0.30 | 76 | 1011.2 |
| 20260904120152 | 22 | 0 | 0.0 | 0.0 | 0.00 | 0.30 | 0.30 | 95 | 1011.2 |
| 20260904110150 | 21 | 0 | 0.0 | 0.0 | 0.00 | 0.30 | 0.30 | 95 | 1010.7 |
| 20260904103150 | 21 | 0 | 0.0 | 0.0 | 0.00 | 0.30 | 0.30 | 95 | 1010.3 |